Starlink 35144

operational
NORAD ID: 65538 Int'l Des: 2025-200 Owner: SPXS Country: US Constellation: starlink
LEOCIRCULARRETROGRADE

关于 Starlink 35144

正在加载描述...

实时位置

正在加载3D地球...

即将过境

高度历史

Altitude vs Time

uPlot chart will show altitude changes over time

两行轨道根数

1 65538U 25200U 25304.17459489 .00058077 00000-0 14784-2 0 9990
2 65538 97.6038 11.8345 0001444 41.6706 318.4649 15.39377142 9625
Epoch: Oct 31, 2025 • Age: 14 hours

当前状态

高度 453.3 km
速度 7.64 km/s
星下点 -14.60°S, 61.62°E
发射日期 Sep 6, 2025
运行时间 0.1 years
类型 internet

技术详情

分类 Payload
质量 575.00 kg
干质量 530.00 kg
总质量 575.00 kg
长度 0.30 m
直径 4.10 m
跨度 29.00 m
形状 Box + pan
制造商 SPXS
平台类型 Starlink V2MO
阶段状态 In Orbit
所有者/国家 SPXS/US

大型星座

Loading constellations...